Location: Unspecified
(0.0000°N, 0.0000°E)
Time: 11:21:04
(UTC+00:00)

JUGNU - Visible Passes

Search period start: 22 May 2019 00:00
Search period end: 01 June 2019 00:00
Orbit: 836 x 864 km, 20.0° (Epoch: 22 May)

Date Brightness Start Highest point End Pass type
(mag) Time Alt. Az. Time Alt. Az. Time Alt. Az.
22 May ? 03:12:40 26° NNE 03:12:40 26° NNE 03:16:53 10° ENE visible
22 May ? 04:55:07 10° WNW 05:01:04 72° NNE 05:07:04 10° ESE visible
22 May ? 19:32:34 10° WNW 19:37:16 25° NNW 19:41:59 10° NE visible
23 May ? 02:59:09 23° ENE 02:59:09 23° ENE 03:01:56 10° ENE visible
23 May ? 04:41:03 16° WNW 04:45:55 80° NNE 04:51:56 10° ESE visible
23 May ? 19:17:41 10° WNW 19:22:10 23° NNW 19:26:40 10° NE visible
23 May ? 21:10:02 10° NNW 21:10:13 10° NNW 21:10:13 10° NNW visible
24 May ? 02:45:41 16° ENE 02:45:41 16° ENE 02:46:58 10° E visible
24 May ? 04:27:35 29° WNW 04:30:46 89° NNE 04:36:48 10° ESE visible
24 May ? 19:02:49 10° WNW 19:07:06 21° NNW 19:11:22 10° NNE visible
24 May ? 20:55:27 10° NNW 20:56:26 11° NNW 20:56:26 11° NNW visible
25 May ? 04:14:07 52° W 04:15:37 82° SSW 04:21:38 10° ESE visible
25 May ? 18:48:00 10° WNW 18:52:02 19° NNW 18:56:04 10° NNE visible
25 May ? 20:40:59 10° NNW 20:41:54 10° N 20:42:33 10° N visible
26 May ? 04:00:37 72° S 04:00:37 72° S 04:06:28 10° ESE visible
26 May ? 18:33:11 10° NW 18:36:57 17° NNW 18:40:44 10° NNE visible
27 May ? 03:47:04 44° SE 03:47:04 44° SE 03:51:16 10° ESE visible
27 May ? 05:29:43 10° WSW 05:34:34 25° SSW 05:39:27 10° SE visible
27 May ? 18:18:24 10° NW 18:21:54 16° NNW 18:25:24 10° NNE visible
28 May ? 03:33:29 26° SE 03:33:29 26° SE 03:36:03 10° ESE visible
28 May ? 05:15:21 12° WSW 05:19:29 23° SSW 05:24:07 10° SE visible
29 May ? 03:19:49 15° SE 03:19:49 15° SE 03:20:50 10° SE visible
29 May ? 05:01:42 16° SW 05:04:22 21° SSW 05:08:48 10° SSE visible
30 May ? 04:47:58 18° SSW 04:49:18 19° SSW 04:53:29 10° SSE visible
31 May ? 04:34:10 18° SSW 04:34:13 18° SSW 04:38:07 10° SSE visible
31 May ? 20:59:00 10° NNW 20:59:41 11° NNW 20:59:41 11° NNW visible
